sat.trackr.live / text

‹ back to catalog

KUIPER-00055

NORAD 64515 · 2025-134R

PAYLOAD ACTIVE UNKNOWN

§ Identity

Operator
Country
US
Launch date
2025-06-23
Launch site
AFETR
Launch vehicle
Mass (kg)
RCS (m²)

External: N2YO · Heavens-Above · Gunter

§ Orbital elements

Epoch: 2026-09-21T16:52:17.763168Z

Period
97.30 min
Inclination
51.9035°
Eccentricity
0.0000254
Mean motion
14.79935521 rev/d
Perigee alt
629.3 km
Apogee alt
629.7 km
Semi-major
7,007.7 km
B*
-5.0361e-4
RAAN
23.9165°
Arg perigee
151.2832°
Mean anomaly
208.8144°
Rev number
6,997

§ Raw data

KUIPER-000551 64515U 25134R   26264.70298337 -.00004058  00000+0 -50361-3 0  99912 64515  51.9035  23.9165 0000254 151.2832 208.8144 14.79935521 69979

JSON: /api/v1/satellites/64515 · /tle

For live sub-satellite position, see the globe view (requires WebGL).

§ Visibility from observer

Set your observer location to see the next 7 days of passes ≥ 10°. The values pass through the URL so the page stays shareable.

No JS? Fill the form by hand. The geolocation button needs JavaScript.